TimeCST,TemperatureF,Dew PointF,Humidity,Sea Level PressureIn,VisibilityMPH,Wind Direction,Wind SpeedMPH,Gust SpeedMPH,PrecipitationIn,Events,Conditions,WindDirDegrees,DateUTC
12:54 AM,48.9,41.0,74,29.88,10.0,ESE,6.9,-,N/A,,Overcast,110,2012-12-07 06:54:00
1:54 AM,48.0,42.1,80,29.87,10.0,East,4.6,-,N/A,,Overcast,100,2012-12-07 07:54:00
2:54 AM,48.0,42.1,80,29.87,10.0,ESE,3.5,-,N/A,,Overcast,110,2012-12-07 08:54:00
3:54 AM,46.9,43.0,86,29.86,10.0,ENE,4.6,-,N/A,,Overcast,60,2012-12-07 09:54:00
4:36 AM,46.4,42.8,87,29.87,10.0,NNE,6.9,-,N/A,,Overcast,20,2012-12-07 10:36:00
4:43 AM,46.4,42.8,87,29.87,10.0,NNE,6.9,-,N/A,,Overcast,20,2012-12-07 10:43:00
4:54 AM,48.0,42.1,80,29.87,10.0,NNE,8.1,-,N/A,,Overcast,20,2012-12-07 10:54:00
5:54 AM,46.9,42.1,83,29.86,10.0,NE,6.9,-,N/A,,Overcast,50,2012-12-07 11:54:00
6:54 AM,46.9,42.1,83,29.87,10.0,NE,4.6,-,N/A,,Overcast,50,2012-12-07 12:54:00
7:54 AM,46.9,42.1,83,29.88,10.0,North,3.5,-,N/A,,Overcast,10,2012-12-07 13:54:00
8:54 AM,46.9,43.0,86,29.89,10.0,NNE,6.9,-,N/A,,Overcast,30,2012-12-07 14:54:00
9:54 AM,48.0,43.0,83,29.89,7.0,NE,5.8,-,N/A,,Overcast,40,2012-12-07 15:54:00
10:10 AM,48.2,44.6,87,29.89,5.0,NE,4.6,-,N/A,,Overcast,40,2012-12-07 16:10:00
10:54 AM,48.9,45.0,86,29.88,4.0,North,3.5,-,N/A,,Overcast,360,2012-12-07 16:54:00
11:54 AM,48.9,45.0,86,29.86,3.0,Variable,3.5,-,N/A,,Overcast,0,2012-12-07 17:54:00
12:10 PM,48.2,44.6,87,29.86,2.5,North,3.5,-,N/A,,Overcast,360,2012-12-07 18:10:00
12:38 PM,48.2,44.6,87,29.85,3.0,North,3.5,-,N/A,,Overcast,350,2012-12-07 18:38:00
12:49 PM,48.2,44.6,87,29.84,2.5,Calm,Calm,-,N/A,,Overcast,0,2012-12-07 18:49:00
12:54 PM,48.0,45.0,89,29.85,3.0,Calm,Calm,-,N/A,,Overcast,0,2012-12-07 18:54:00
1:54 PM,48.9,45.0,86,29.84,4.0,Calm,Calm,-,N/A,,Overcast,0,2012-12-07 19:54:00
2:54 PM,50.0,46.0,86,29.83,3.0,Calm,Calm,-,N/A,,Overcast,0,2012-12-07 20:54:00
3:54 PM,50.0,46.0,86,29.85,4.0,Calm,Calm,-,N/A,,Overcast,0,2012-12-07 21:54:00
4:54 PM,48.9,46.0,90,29.86,5.0,NNW,5.8,-,N/A,,Overcast,340,2012-12-07 22:54:00
5:54 PM,48.0,46.0,93,29.88,4.0,NW,6.9,-,N/A,,Overcast,310,2012-12-07 23:54:00
6:54 PM,48.2,44.6,87,29.87,5.0,NNW,6.9,-,N/A,,Overcast,340,2012-12-08 00:54:00
7:18 PM,48.2,46.4,93,29.86,2.5,North,8.1,-,N/A,,Overcast,10,2012-12-08 01:18:00
7:27 PM,46.4,46.4,100,29.86,0.8,NNE,6.9,-,N/A,,Overcast,20,2012-12-08 01:27:00
7:54 PM,46.9,46.0,97,29.88,0.2,North,5.8,-,N/A,Fog,Fog,360,2012-12-08 01:54:00
8:17 PM,46.4,46.4,100,29.88,0.5,North,6.9,-,N/A,Fog,Fog,360,2012-12-08 02:17:00
8:54 PM,46.9,46.0,97,29.88,0.8,North,6.9,-,N/A,,Mist,360,2012-12-08 02:54:00
9:01 PM,46.4,46.4,100,29.89,1.5,North,8.1,-,N/A,,Overcast,350,2012-12-08 03:01:00
9:09 PM,46.4,44.6,93,29.89,2.5,North,8.1,-,N/A,,Overcast,350,2012-12-08 03:09:00
9:18 PM,46.4,44.6,93,29.89,3.0,North,8.1,-,N/A,,Overcast,350,2012-12-08 03:18:00
9:32 PM,46.4,44.6,93,29.89,4.0,North,8.1,-,0.00,Rain,Light Rain,350,2012-12-08 03:32:00
9:54 PM,46.0,45.0,96,29.90,3.0,North,9.2,-,0.00,,Overcast,350,2012-12-08 03:54:00
10:05 PM,46.4,44.6,93,29.89,2.5,North,5.8,-,N/A,,Overcast,360,2012-12-08 04:05:00
10:38 PM,46.4,44.6,93,29.90,3.0,NNW,6.9,-,0.01,Rain,Light Rain,340,2012-12-08 04:38:00
10:54 PM,46.0,45.0,96,29.91,3.0,NW,5.8,-,0.02,Rain,Rain,310,2012-12-08 04:54:00
11:12 PM,46.4,44.6,93,29.90,2.5,North,3.5,-,0.03,Rain,Rain,360,2012-12-08 05:12:00
11:40 PM,46.4,44.6,93,29.89,3.0,NNE,3.5,-,0.06,Rain,Light Rain,20,2012-12-08 05:40:00
11:49 PM,46.4,44.6,93,29.89,2.0,NNE,4.6,-,0.06,Rain,Light Rain,30,2012-12-08 05:49:00
11:54 PM,46.0,45.0,96,29.89,2.0,Calm,Calm,-,0.06,Rain,Light Rain,0,2012-12-08 05:54:00